Content
SEND FEEDBACK

Daily
Averages
Monthly
Summary
United Kingdom

YORK, ENGLAND


Home > Europe > United Kingdom > England
Elevation: 27 feet     Latitude: 53 50N     Longitude: 001 11W

WEATHER
 
SELECT A DAY
Number of Records: 48,838;   Date Range: 6/27/01 - 12/19/13
 
SHARE

PRINT THIS DATA

[ ← Previous Day ]
WEATHER ALMANAC - MARCH 12, 2013
[ Next Day → ]
[ °C ]   °F
Weather ElementAverageHighLow
Temperature34 °F41 °F (12:50 pm)23 °F (2:50 am)
Dewpoint24.4 °F30.2 °F (9:50 pm)17 °F (2:50 am)
Humidity66.7 %87 % (11:50 pm)45 % (2:50 pm)
Barometer29.91 in29.99 in (2:50 am)29.83 in (6:50 pm)
Wind Speed10.5 mph17.3 mph (12:50 pm)
Weather ElementAverage
Visibility11.6 mi
Wind DirectionNNW (329.7 °)

Weather ElementTotal
Precipitation---
Heating Degree Days33 (Base 65)
Averaged from 31 records on March 12, 2013
WEATHER CONDITIONS BREAKOUT
WIND DIRECTION BREAKOUT
WEATHER BY HOUR - MARCH 12, 2013
[ °C ]   °F
Local TimeTemperatureDewpointHumidityBarometerVisibilityWind DirectionWind SpeedGust SpeedPrecipitationEventsConditions
1:50 AM24.8 °F21.2 °F86 %29.98 in6.2 miNorth (360°)6.9 mphScattered Clouds
2:50 AM23.0 °F17.0 °F71 %29.99 in22.0 miNNW (340°)6.9 mphScattered Clouds
2:50 AM23.0 °F17.6 °F80 %29.98 in6.2 miNNW (340°)6.9 mphPartly Cloudy
3:50 AM23.0 °F17.6 °F80 %29.98 in6.2 miNorth (360°)8.1 mph
4:50 AM26.6 °F21.2 °F80 %29.95 in6.2 miNorth (10°)5.8 mphMostly Cloudy
5:50 AM28.0 °F24.0 °F77 %29.97 in22.0 miNNW (340°)6.9 mphN Precipitation
5:50 AM28.4 °F23.0 °F80 %29.95 in6.2 miNNW (340°)6.9 mphMostly Cloudy
6:50 AM26.6 °F21.2 °F80 %29.95 in6.2 miNorth (360°)5.8 mphMostly Cloudy
7:50 AM28.4 °F23.0 °F80 %29.95 in6.2 miNNW (340°)9.2 mphPartly Cloudy
8:50 AM32.0 °F23.0 °F59 %29.97 in25.0 miNNW (340°)13.8 mphMostly Cloudy
8:50 AM32.0 °F23.0 °F69 %29.95 in6.2 miNNW (340°)13.8 mphMostly Cloudy
9:50 AM32.0 °F26.6 °F80 %29.95 in6.2 miNNW (340°)11.5 mphSnowLight Snow Showers
10:50 AM35.6 °F23.0 °F60 %29.95 in6.2 miNNW (340°)12.7 mphMostly Cloudy
11:50 AM37.0 °F24.0 °F47 %29.94 in31.0 miNNW (340°)12.7 mphPartly Cloudy
11:50 AM37.4 °F24.8 °F60 %29.92 in6.2 miNNW (340°)12.7 mphMostly Cloudy
12:50 PM41.0 °F24.8 °F53 %29.92 in6.2 miNorth (350°)17.3 mphPartly Cloudy
1:50 PM41.0 °F24.8 °F53 %29.89 in6.2 miNorth (360°)17.3 mphMostly Cloudy
2:50 PM40.0 °F26.0 °F45 %29.89 in31.0 miNNW (340°)12.7 mphMostly Cloudy
2:50 PM39.2 °F26.6 °F61 %29.89 in6.2 miNNW (340°)12.7 mphMostly Cloudy
3:50 PM41.0 °F24.8 °F53 %29.86 in6.2 miNorth (350°)12.7 mphMostly Cloudy
4:50 PM41.0 °F26.6 °F57 %29.86 in6.2 miNorth (350°)9.2 mphMostly Cloudy
5:50 PM39.0 °F25.0 °F46 %29.86 in31.0 miNNW (340°)10.4 mphMostly Cloudy
5:50 PM39.2 °F24.8 °F56 %29.86 in6.2 miNNW (340°)10.4 mphMostly Cloudy
6:50 PM39.2 °F24.8 °F56 %29.83 in6.2 miNW (320°)10.4 mphMostly Cloudy
7:50 PM39.2 °F24.8 °F56 %29.86 in6.2 miNW (320°)11.5 mphMostly Cloudy
8:50 PM38.0 °F27.0 °F52 %29.86 in28.0 miNW (320°)10.4 mphScattered Clouds
8:50 PM37.4 °F26.6 °F65 %29.86 in6.2 miNW (320°)10.4 mphMostly Cloudy
9:50 PM35.6 °F30.2 °F81 %29.86 in6.2 miNNW (340°)12.7 mphPartly Cloudy
10:50 PM35.6 °F30.2 °F81 %29.83 in6.2 miNNW (340°)10.4 mphPartly Cloudy
11:50 PM35.0 °F30.0 °F77 %29.85 in28.0 miNNW (330°)8.1 mphN Precipitation
11:50 PM33.8 °F30.2 °F87 %29.83 in6.2 miNNW (330°)8.1 mphScattered Clouds
Hourly data recorded from EGXG, located miles away from York, England







STORIES FROM OUR PARTNERS